GAU weather

Lokpriya Gopinath Bordoloi International Airport
Guwahati, Assam, India

Public forecast

Using degrees Celsius for public forecast. Weather courtesy of forecast.io.

Current aviation weather report (METAR) for Lokpriya Gopinath Bordoloi International Airport

Retrieved 2019/12/16 02:30 UTC (0 seconds ago):

VEGT 160230Z 00000KT 1500 BR SCT018 BKN090 BKN100 19/18 Q1017 NOSIG

Aviation forecast (TAF) for Lokpriya Gopinath Bordoloi International Airport

Forecast is more than 12 hours old.

Retrieved 2016/03/24 00:45 UTC (4 years ago):

TAF VEGT 242300Z 2500/2606 00000KT 2000 BR FEW020 BECMG 2503/2506 05008KT 4000 HZ BECMG 2506/2509 5000 HZ BECMG 2512/2514 00000KT 4000 HZ FEW020 SCT100 BECMG 2515/2518 2500 HZ BECMG 2603/2606 05008KT 4000 HZ FEW020=